This is the latest recevied weather packets stored in our database for station/object K1ABC. If no packets are shown the sender has not sent any weather packets the latest 10 day(s).
| Time | Temp. | Humidity | Pressure | Rain* | Wind** | Luminosity | Snow |
|---|---|---|---|---|---|---|---|
| 1777902546 | 16.67° C | 40% | 1008.3 hPa | 0 mm | - | - | - |
| 1777902218 | 16.67° C | 41% | 1008.4 hPa | 0 mm | - | - | - |
| 1777901757 | 16.67° C | 46% | 1008.4 hPa | 0 mm | - | - | - |
| 1777901055 | 15.56° C | 46% | 1008.7 hPa | 0 mm | - | - | - |
| 1777900731 | 15° C | 47% | 1008.8 hPa | 0 mm | - | - | - |
| 1777899915 | 14.44° C | 49% | 1009 hPa | 0 mm | - | - | - |
| 1777899474 | 13.89° C | 47% | 1009.1 hPa | 0 mm | - | - | - |
| 1777898772 | 13.33° C | 50% | 1009.2 hPa | 0 mm | - | - | - |
| 1777898336 | 12.78° C | 50% | 1009.3 hPa | 0 mm | - | - | - |
| 1777898010 | 12.78° C | 51% | 1009.5 hPa | 0 mm | - | - | - |
| 1777896933 | 11.67° C | 53% | 1009.6 hPa | 0 mm | - | - | - |
| 1777894604 | 10° C | 59% | 1009.7 hPa | 0 mm | - | - | - |
| 1777894147 | 9.44° C | 59% | 1009.7 hPa | 0 mm | - | - | - |
| 1777893578 | 9.44° C | 59% | 1009.8 hPa | 0 mm | - | - | - |
| 1777893375 | 9.44° C | 60% | 1009.8 hPa | 0 mm | - | - | - |
| 1777892930 | 8.89° C | 60% | 1009.7 hPa | 0 mm | - | - | - |
| 1777891730 | 8.89° C | 60% | 1009.8 hPa | 0 mm | - | - | - |
| 1777891157 | 8.33° C | 60% | 1009.8 hPa | 0 mm | - | - | - |
| 1777890592 | 8.33° C | 60% | 1009.8 hPa | 0 mm | - | - | - |
| 1777889890 | 7.78° C | 60% | 1009.8 hPa | 0 mm | - | - | - |
| 1777889566 | 7.78° C | 60% | 1009.9 hPa | 0 mm | - | - | - |
| 1777889366 | 7.78° C | 61% | 1009.9 hPa | 0 mm | - | - | - |
| 1777889045 | 7.78° C | 61% | 1009.9 hPa | 0 mm | - | - | - |
| 1777887984 | 7.22° C | 61% | 1009.6 hPa | 0 mm | - | - | - |
| 1777887028 | 7.22° C | 61% | 1009.6 hPa | 0 mm | - | - | - |
* Rain latest hour (hover to see other rain measurements)
** Current wind speed in m/s (hover to see current wind gust speed)